[Iaude] MPEC W96: 2023 WE2 [a=1.08,e=0.22,i=2.9,H=27.0]
    mpec at marsden.cfa.harvard.edu 
    mpec at marsden.cfa.harvard.edu
       
    Wed Nov 22 15:42:07 EST 2023
    
    
  
M.P.E.C. 2023-W96                             Issued 2023 November 22, 20:32 UT
     The Minor Planet Electronic Circulars contain information on unusual
         minor planets, routine data on comets and natural satellites,
         and occasional editorial announcements.  They are published
    on behalf of Division F of the International Astronomical Union by the
          Minor Planet Center, Smithsonian Astrophysical Observatory,
                          Cambridge, MA 02138, U.S.A.
			  
             Prepared using the Tamkin Foundation Computer Network
                              MPC at CFA.HARVARD.EDU
            URL https://www.minorplanetcenter.net/    ISSN 1523-6714
                                    2023 WE2                                    
Observations:
     K23W02E*1C2023 11 22.18739403 24 37.210+36 37 17.80         18.09GVEW096703
     K23W02E 1C2023 11 22.19266103 24 37.976+36 36 35.53         17.99GVEW096703
     K23W02E 1C2023 11 22.19791903 24 38.768+36 35 52.76         18.07GVEW096703
     K23W02E 1C2023 11 22.20318203 24 39.496+36 35 10.50         18.22GVEW096703
     K23W02E mC2023 11 22.23298303 24 43.164+36 31 04.55         18.14GVEW096I52
     K23W02E mC2023 11 22.23315803 24 43.175+36 31 03.07         18.07GVEW096I52
     K23W02E mC2023 11 22.23382503 24 43.265+36 30 57.42         17.94GVEW096I52
     K23W02E mC2023 11 22.23450303 24 43.319+36 30 51.95         18.09GVEW096I52
     K23W02E KB2023 11 22.24032 03 24 30.19 +36 28 50.9          18.2 GXEW096H36
     K23W02E KB2023 11 22.24272 03 24 30.48 +36 28 30.1          18.2 GXEW096H36
     K23W02E KB2023 11 22.24513 03 24 30.80 +36 28 08.0          18.4 GXEW096H36
     K23W02E  C2023 11 22.37512 03 25 01.68 +36 08 15.8          17.8  rEW096718
     K23W02E  C2023 11 22.37621 03 25 01.81 +36 08 07.4          18.0  rEW096718
     K23W02E  C2023 11 22.37729 03 25 02.00 +36 07 57.5          17.9  rEW096718
     K23W02E  C2023 11 22.37837 03 25 02.19 +36 07 47.3          18.0  rEW096718
     K23W02E KC2023 11 22.52573403 26 41.54 +35 50 01.7          17.9 GVEW096900
     K23W02E KC2023 11 22.53282203 26 42.08 +35 49 15.0          18.6 GVEW096900
     K23W02E KC2023 11 22.53990703 26 42.62 +35 48 27.7          18.3 GVEW096900
     K23W02E KC2023 11 22.75251 03 28 05.65 +35 19 45.8          17.5 VqEW096M38
     K23W02E KC2023 11 22.75674803 28 10.38 +35 19 14.9          18.3 GVEW096L01
     K23W02E KC2023 11 22.75843003 28 10.68 +35 19 06.4          18.6 GVEW096L01
     K23W02E KC2023 11 22.75947503 28 12.01 +35 18 39.8          18.0 GVEW096203
     K23W02E KC2023 11 22.76010903 28 10.98 +35 18 58.4          18.5 GVEW096L01
     K23W02E KC2023 11 22.76178703 28 11.30 +35 18 50.1          18.6 GVEW096L01
     K23W02E KC2023 11 22.76760303 28 13.65 +35 17 59.4          18.4 GVEW096203
     K23W02E KC2023 11 22.76833 03 28 08.34 +35 18 23.3          18.0 VqEW096M38
     K23W02E KC2023 11 22.77221103 28 14.52 +35 17 36.5                VEW096203
     K23W02E KC2023 11 22.82156 03 28 29.57 +35 13 31.3          17.9 GXEW096Z41
     K23W02E KC2023 11 22.83021 03 28 30.84 +35 12 50.0          18.3 GXEW096Z41
     K23W02E KC2023 11 22.83543 03 28 15.93 +35 12 42.5          18.7 VqEW096L04
     K23W02E KC2023 11 22.83736 03 28 16.10 +35 12 31.8          18.6 VqEW096L04
     K23W02E KC2023 11 22.83870 03 28 31.99 +35 12 09.3          18.3 GXEW096Z41
     K23W02E KC2023 11 22.84069 03 28 16.38 +35 12 13.2          18.7 VqEW096L04
Observer details:
203 GiaGa Observatory.  Observers S. Foglia, G. Galli.  Measurer G. Galli.
    0.36-m f/5.76 Schmidt-Cassegrain + CCD.
703 Catalina Sky Survey.  Observer J. K. Hogan.  Measurers E. C. Beshore, D.
    Fay, J. B. Fazekas, D. C. Fuls, A. R. Gibbs, A. D. Grauer, H. Groeller, J.
    K. Hogan, R. A. Kowalski, S. M. Larson, G. J. Leonard, D. Rankin, R. L.
    Seaman, F. C. Shelly, K. W. Wierzchos.  0.68-m Schmidt + 10K CCD.
718 Tooele.  Observer P. Wiggins.  0.35-m f/5.5 Schmidt-Cassegrain + CCD.
900 Moriyama.  Observer Y. Ikari.  0.26-m f/7.0 reflector + CCD.
H36 Sandlot Observatory, Scranton.  Observer G. Hug.  0.56-m f/4.8 reflector +
    CMO.
I52 Steward Observatory, Mt. Lemmon Station.  Observer R. A. Kowalski.
    Measurers E. C. Beshore, D. Fay, J. B. Fazekas, D. C. Fuls, A. R. Gibbs,
    A. D. Grauer, H. Groeller, J. K. Hogan, R. A. Kowalski, S. M. Larson, G.
    J. Leonard, D. Rankin, R. L. Seaman, F. C. Shelly, K. W. Wierzchos.  1.0-m
    prime focus + CCD.
L01 Visnjan Observatory, Tican.  Observer K. Korlevic.  1.0-m f/2.9 reflector
    + CCD.
L04 ROASTERR-1 Observatory, Cluj-Napoca.  Observer L. Hudin.  0.3-m f/5
    reflector + CCD.
M38 Harsona Observatory, Nyiregyhaza.  Observer T. Elek.  0.20-m f/3 reflector
    + CCD.
Z41 Irydeo Observatory, Camarma de Esteruelas.  Observer F. Calvo.  0.28-m
    f/2.2 reflector + CCD.
Orbital elements:
2023 WE2                                                 Earth MOID = 0.0018 AU
Epoch 2023 Sept. 13.0 TT = JDT 2460200.5                Veres                   
M 356.79655              (2000.0)            P               Q                  
n   0.88109528     Peri.  281.20333     +0.91223181     +0.40754490             
a   1.0775914      Node    54.75896     -0.35311687     +0.83383402             
e   0.2226759      Incl.    2.92781     -0.20770557     +0.37232780             
P   1.12           H   27.05          G   0.15           U   7                  
Residuals in seconds of arc
231122 703  0.3+  0.2+    231122 718  0.2+  1.4-    231122 L01  0.5-  0.1+
231122 703  0.1-  0.2+    231122 718  0.3-  0.3+    231122 L01  0.4-  0.2+
231122 703  0.2+  0.3-    231122 718  0.1-  0.5+    231122 203  0.4+  0.3-
231122 703  0.1+  0.1+    231122 718  0.1+  0.4+    231122 M38  0.5+  0.3-
231122 I52  0.0   0.0     231122 900  0.2+  0.1-    231122 203  0.2+  0.5-
231122 I52  0.1-  0.0     231122 900  0.1-  0.1+    231122 Z41  0.4+  0.3+
231122 I52  0.1+  0.1-    231122 900  0.1+  0.2+    231122 Z41  0.4+  0.2+
231122 I52  0.1-  0.1+    231122 M38  0.1+  0.7+    231122 L04  0.1+  0.1+
231122 H36  0.2+  0.8-    231122 L01  0.1+  0.0     231122 L04  0.1+  0.0
231122 H36  0.1+  0.1+    231122 L01  0.2-  0.2-    231122 Z41  0.5+  0.2+
231122 H36  0.3+  0.2-    231122 203  0.3+  0.2+    231122 L04  0.1+  0.2-
Ephemeris:
2023 WE2                 a,e,i = 1.08, 0.22, 3                   q = 0.8376
Date    TT    R. A. (2000) Decl.     Delta      r    Elong.  Phase     V
2023 10 23    15 30 06.0 -30 09 56   0.1190  0.8946    30.4   145.7    29.9
...
2023 11 07    15 38 25.2 -30 35 48   0.05132 0.9428    18.8   160.1    31.5
...
2023 11 15    15 46 19.0 -27 49 53   0.01818 0.9715    11.5   168.3    33.6
...
2023 11 21    03 07 46.4 +41 49 29   0.0066790.9942   156.7    23.2    17.3
2023 11 22    03 22 36.1 +37 08 38   0.01069 0.9980   162.0    17.8    18.1
2023 11 23    03 28 45.3 +34 58 57   0.01474 1.0018   164.3    15.4    18.7
...
2023 11 29    03 38 32.2 +31 18 28   0.03939 1.0249   166.8    12.7    20.8
...
2023 12 07    03 42 08.0 +30 04 19   0.07348 1.0557   162.7    16.1    22.4
...
2023 12 22    03 50 16.6 +29 00 23   0.1443  1.1120   150.9    25.5    24.2
M. P. C. Staff               (C) Copyright 2023 MPC           M.P.E.C. 2023-W96
    
    
More information about the Iaude
mailing list